Regional Weather Roundup
Issued by NWS

Home | Current Version | Previous Version | Text Only | Print | Product List | Glossary On
Versions: 1 2 3 4 5 6 7 8 9 10 11 12 13 14 15 16 17 18 19 20 21 22 23 24 25 26 27 28 29 30 31 32 33 34 35 36 37 38 39 40 41 42 43 44 45 46 47 48 49 50
890
ASUS43 KLMK 230410
RWRKY
KENTUCKY REGIONAL WEATHER ROUNDUP
NATIONAL WEATHER SERVICE LOUISVILLE KY
1100 PM EST MON JAN 22 2018

NOTE "FAIR" INDICATES FEW OR NO CLOUDS BELOW 12,000 FEET
WITH NO SIGNIFICANT WEATHER AND/OR OBSTRUCTIONS TO VISIBILITY.

KYZ001>023-026-027-061>063-070>075-230500-
WESTERN AND SOUTH CENTRAL KENTUCKY

CITY           SKY/WX    TMP DP  RH WIND       PRES   REMARKS
PADUCAH        CLOUDY    48  28  46 SW17G38   29.71F
HENDERSON      CLOUDY    47  33  58 SW16      29.68S
OWENSBORO      FAIR      48  32  53 W24G30    29.69R
HOPKINSVILLE   FAIR      48  32  54 W17       29.75R
BOWLING GREEN  FAIR      52  32  46 SW10      29.74R
GLASGOW        FAIR      53  32  45 W13G22    29.73R
$$

KYZ024-025-028>034-038-045-046-053-230500-
NORTH CENTRAL KENTUCKY

CITY           SKY/WX    TMP DP  RH WIND       PRES   REMARKS
LOUISVILLE/SDF FAIR      52  33  48 W16G31    29.68R
LOUISVILLE/LOU FAIR      52  35  52 W18G26    29.68R
FORT KNOX      CLEAR     49  33  55 SW13      29.67R
$$

KYZ035>037-039>044-047>052-055>060-089>105-230500-
NORTHEAST KENTUCKY

CITY           SKY/WX    TMP DP  RH WIND       PRES   REMARKS
LEXINGTON      FAIR      54  45  71 SW16G31   29.66S
COVINGTON      CLOUDY    51  45  79 SW15G23   29.62R
FRANKFORT      FAIR      55  42  61 W15G29    29.64R
$$

KYZ054-064>069-076>088-106>120-230500-
SOUTHEAST KENTUCKY

CITY           SKY/WX    TMP DP  RH WIND       PRES   REMARKS
JACKSON        MOCLDY    60  49  66 S15G30    29.68R
LONDON         CLOUDY    60  51  72 SW7       29.70S
SOMERSET       MOCLDY    55  45  67 W13G21    29.73R
MIDDLESBORO    MOCLDY    57  52  82 S8        29.76F
MONTICELLO     FAIR      59  46  62 SW26G37   29.73R
$$





USA.gov is the U.S. government's official web portal to all federal, state and local government web resources and services.